Hourly Data Report for October 27, 2015

All times are specified in Local Standard Time (LST). Add 1 hour to adjust for Daylight Saving Time where and when it is observed.

CORAL HARBOUR A
NUNAVUT

64°11'36.000" N
83°21'34.000" W
62.20 m
2301002
71915
YZS

Download Data

Hourly Data (October 2015)
Hourly Data Report for October 27, 2015
Temp Definition
°C
Dew Point Temp Definition
°C
Rel Hum Definition
%
Wind Dir Definition
10's deg

Wind Spd Definition
km/h
Visibility Definition
km
Stn Press Definition
kPa
Hmdx Definition


Wind Chill Definition


Weather Definition


TIME
00:00 Legend Double Dagger -13.2 -16.6 76 32 35 24.1 99.14   -24 LegendNANA
01:00 Legend Double Dagger -12.1 -15.7 75 32 36 24.1 99.17   -23 Blowing Snow
02:00 Legend Double Dagger -13.1 -16.7 75 31 28 24.1 99.21   -23 LegendNANA
03:00 Legend Double Dagger -13.6 -16.8 77 30 26 24.1 99.25   -24 LegendNANA
04:00 Legend Double Dagger -12.5 -15.7 77 32 35 24.1 99.25   -23 Mainly Clear
05:00 Legend Double Dagger -12.2 -15.5 77 33 42 24.1 99.28   -24 Blowing Snow
06:00 Legend Double Dagger -12.6 -15.1 82 32 27 24.1 99.36   -22 Blowing Snow
07:00 Legend Double Dagger -12.0 -14.6 81 33 46 24.1 99.36   -24 Blowing Snow
08:00 Legend Double Dagger -12.5 -15.3 80 33 42 24.1 99.41   -24 Blowing Snow
09:00 Legend Double Dagger -12.4 -15.5 78 32 34 24.1 99.53   -23 Blowing Snow
10:00 Legend Double Dagger -11.8 -14.9 78 32 36 24.1 99.58   -23 Blowing Snow
11:00 Legend Double Dagger -11.1 -14.5 76 32 43 24.1 99.65   -23 Blowing Snow
12:00 Legend Double Dagger -11.7 -15.1 76 31 44 24.1 99.66   -23 Blowing Snow
13:00 Legend Double Dagger -11.9 -15.3 76 32 45 24.1 99.70   -24 Blowing Snow
14:00 Legend Double Dagger -12.5 -16.2 74 32 44 24.1 99.77   -25 Blowing Snow
15:00 Legend Double Dagger -13.1 -16.8 74 32 39 24.1 99.86   -25 Blowing Snow
16:00 Legend Double Dagger -14.0 -17.5 75 31 21 24.1 99.99   -23 Clear
17:00 Legend Double Dagger -14.5 -18.2 74 33 35 24.1 100.04   -26 LegendNANA
18:00 Legend Double Dagger -15.4 -19.0 74 31 29 24.1 100.11   -26 LegendNANA
19:00 Legend Double Dagger -15.3 -19.0 74 31 26 24.1 100.16   -26 Mainly Clear
20:00 Legend Double Dagger -15.4 -18.4 78 30 11 24.1 100.23   -22 LegendNANA
21:00 Legend Double Dagger -15.3 -18.6 76 34 29 24.1 100.19   -26 LegendNANA
22:00 Legend Double Dagger -15.2 -18.9 74 32 16 24.1 100.27   -23 LegendNANA
23:00 Legend Double Dagger -15.8 -18.7 79 6 6 24.1 100.36   -20 LegendNANA

Notes on Data Quality.

Legend

  • E = Estimated
  • M = Missing
  • NA = Not Available
  • ‡ = Partner data that is not subject to review by the National Climate Archives
Date modified: